Temperature
22 24 25 26 26 26 24 23 23 23 23 23 23 23 24 24 23 23 23 23 24 24 24 24 24 24 23 23 23 23 23 22 22 22 21 21 21 20 20 20 20 19 19 19
23 24 25 25 26 26 26 25 24 24 23 23 23 24 23 23 23 23 23 23 23 24 24 24 23 23 23 23 23 23 22 22 22 22 21 21 21 21 20 20 19 19 19 19
20 22 24 24 25 25 25 24 24 23 22 22 22 22 22 23 23 23 23 23 23 23 23 23 23 23 23 23 23 23 22 22 22 22 21 21 21 20 20 20 19 19 19 18
18 21 22 22 23 25 24 23 23 22 22 22 22 22 23 24 23 23 23 23 23 23 23 23 23 23 23 23 23 22 22 22 22 22 21 21 21 20 20 19 19 19 18 18
17 19 21 22 24 24 23 22 22 22 21 21 22 22 22 23 23 23 23 23 23 23 23 23 23 23 22 22 22 22 22 22 21 21 21 21 20 20 20 19 19 19 18 18
17 19 20 21 23 24 22 20 21 21 20 20 21 19 20 22 22 23 23 23 23 23 22 22 22 22 22 22 22 22 21 21 21 21 21 21 20 20 19 19 19 18 18 17
17 18 19 20 22 23 21 20 20 21 21 20 19 20 21 21 22 22 22 22 22 22 22 22 22 22 21 21 21 21 21 21 20 20 20 20 20 19 19 19 18 18 18 17
16 17 18 20 21 20 19 20 20 20 20 20 20 20 21 21 21 21 21 21 22 21 21 21 21 21 21 20 20 20 20 20 20 20 19 19 19 19 18 18 18 17 17 17
15 16 17 19 19 20 20 20 20 20 20 20 20 19 20 20 20 21 21 21 21 21 20 20 20 20 20 20 20 20 19 19 19 19 19 19 18 18 18 18 17 17 17 17
15 16 17 18 19 19 20 20 20 20 20 20 19 19 19 19 20 20 20 20 20 20 20 20 20 20 20 19 19 19 19 19 19 19 18 18 18 18 17 17 17 17 16 16
14 15 16 18 18 18 19 19 19 19 19 19 19 18 19 19 19 19 19 19 19 19 19 19 19 19 19 19 19 18 18 18 18 18 17 17 17 17 17 17 16 16 16 16
14 15 14 16 17 18 18 18 18 18 18 18 18 18 18 18 18 18 19 19 19 19 19 19 18 18 18 18 18 18 18 17 17 17 17 16 16 16 16 16 16 15 15 15
16 16 17 17 17 17 17 17 17 18 18 17 17 18 17 17 17 18 18 18 18 18 18 18 18 17 17 17 17 17 17 17 16 16 16 16 16 16 16 16 15 15 15 15
16 16 16 16 16 16 16 17 17 17 17 17 17 17 17 17 17 17 17 17 17 17 17 17 17 17 16 16 16 16 16 16 16 16 16 15 15 15 15 15 15 15 15 14
15 16 16 16 16 16 16 16 16 16 16 16 16 16 16 16 16 16 16 16 16 16 16 16 16 16 16 16 16 16 15 15 15 15 15 15 15 14 14 14 14 14 14 14
15 15 15 15 15 15 15 15 15 15 16 16 16 16 16 16 16 16 16 16 16 16 15 15 15 15 15 15 15 15 15 15 15 15 14 14 14 14 14 14 14 14 14 13
14 14 14 14 14 14 15 15 15 15 15 15 15 15 15 15 15 15 15 15 15 15 15 15 15 15 15 15 15 15 15 14 14 14 14 14 14 14 14 13 13 13 13 13
14 14 14 14 14 14 14 14 14 15 15 15 15 15 15 15 15 14 14 14 14 14 14 14 14 14 14 14 14 14 14 14 14 14 14 14 14 13 13 13 13 13 13 12
13 14 14 14 13 14 14 14 14 14 14 14 14 14 14 14 14 14 14 14 14 14 14 14 14 14 14 13 13 13 13 14 13 13 13 13 13 13 13 12 12 12 12 12
13 13 13 13 13 13 13 13 14 14 14 14 14 13 13 14 13 13 13 13 13 13 13 13 13 13 13 13 13 13 13 13 13 13 13 13 13 12 12 12 12 11 11 11
13 13 13 13 13 13 13 13 13 13 13 13 13 13 13 13 13 13 13 13 12 12 12 13 13 13 13 13 13 12 12 12 12 12 12 12 12 12 11 11 11 11 10 10
12 13 13 13 13 13 13 13 13 12 12 13 13 13 12 12 12 12 12 12 12 12 12 12 12 12 12 12 12 12 12 12 12 12 11 11 11 11 11 10 10 10 10 10
12 12 12 13 13 13 12 12 12 12 12 12 12 12 12 12 12 12 12 12 12 12 12 12 12 12 12 11 11 11 11 11 11 11 11 10 10 10 10 10 9 9 9 9
12 12 12 12 12 12 12 12 12 12 12 12 12 12 12 12 11 11 11 11 11 11 11 11 11 11 11 11 11 11 10 10 10 10 10 10 9 9 9 9 9 8 8 8
12 12 12 12 12 12 12 12 12 12 12 12 11 11 11 11 11 11 11 11 11 11 11 11 11 10 10 10 10 10 10 10 9 9 9 9 9 9 8 8 8 8 8 8
12 12 11 11 12 12 12 12 11 11 11 11 11 11 11 11 11 11 10 10 10 10 10 10 10 10 10 10 10 9 9 9 9 9 8 8 8 8 8 7 7 7 7 7
11 11 11 11 11 11 11 11 11 11 11 11 10 10 10 10 10 10 10 10 10 10 9 9 9 9 9 9 9 9 9 8 8 8 8 8 8 7 7 7 7 7 7 6
Wind_Speed
4 4 2 3 4 4 5 8 8 8 9 9 10 10 9 9 10 10 9 7 6 7 7 7 7 7 7 8 8 10 10 10 10 8 7 6 5 5 4 4 5 4 4 3
3 2 3 3 4 3 2 3 6 6 5 6 6 6 7 8 11 11 9 8 7 7 7 7 8 7 7 7 8 8 9 9 8 7 6 6 6 5 5 4 3 3 3 3
2 4 3 3 3 2 1 1 5 5 6 5 5 7 8 9 10 11 10 9 9 10 9 8 7 7 8 8 8 8 8 7 7 7 7 6 6 5 5 4 2 2 2 3
0 3 3 7 3 3 5 3 3 5 4 6 8 7 6 7 9 9 9 9 8 7 7 7 6 5 5 5 6 7 7 6 6 7 7 6 6 6 5 4 3 3 3 3
3 2 4 6 4 1 3 3 3 6 6 6 7 7 3 1 5 7 7 7 7 7 6 6 6 5 5 5 5 6 6 6 5 6 6 6 6 6 5 4 3 3 3 3
3 3 5 6 6 1 7 2 3 5 7 6 6 4 2 1 3 5 6 6 6 6 7 6 5 6 6 5 5 5 4 5 4 5 6 6 6 5 4 3 4 3 3 3
4 4 5 6 7 3 4 5 2 3 6 4 3 4 4 3 4 4 5 5 7 7 6 6 6 7 6 5 4 4 4 3 3 3 4 5 4 4 4 4 4 3 3 3
4 3 6 5 4 2 4 3 2 3 5 5 5 5 5 6 5 5 5 5 6 6 5 4 5 7 6 4 3 3 4 3 3 2 2 2 3 3 3 4 4 3 3 2
5 5 4 2 1 1 4 5 3 4 5 7 7 6 5 4 5 5 5 4 5 6 5 4 3 4 4 2 2 3 3 3 2 2 2 2 2 3 3 3 3 3 3 3
1 2 3 4 5 5 5 5 4 4 5 7 7 6 5 4 3 4 4 4 5 6 6 4 3 3 3 2 2 3 3 2 2 2 1 1 0 2 3 3 3 3 3 3
1 3 4 5 3 3 4 5 6 4 4 5 7 5 4 3 3 3 3 3 5 6 5 4 4 3 2 3 3 3 2 3 2 1 1 1 1 1 1 3 4 5 4 4
6 6 2 3 2 2 3 2 3 4 4 4 5 5 3 2 2 3 3 3 4 4 5 4 4 4 3 3 4 4 3 3 2 2 1 2 2 1 4 2 1 1 4 4
6 4 3 3 2 2 2 2 2 3 3 3 3 4 3 2 2 3 3 3 3 3 4 4 4 4 3 3 4 4 4 3 3 3 3 3 3 3 1 2 4 3 0 2
3 2 1 2 2 1 2 2 3 3 2 3 3 3 3 3 2 3 2 1 2 3 2 3 3 3 2 2 3 3 3 3 3 3 3 3 3 3 3 2 1 2 2 2
2 2 3 2 0 1 1 3 4 2 2 2 2 3 3 3 3 2 1 1 3 2 1 1 2 2 2 2 3 3 2 2 2 3 3 3 3 3 2 2 2 1 1 2
1 1 2 2 2 1 1 2 2 1 2 2 2 2 3 3 2 1 1 3 3 1 1 1 2 2 1 2 3 2 2 3 3 2 2 2 2 2 2 2 2 2 3 3
1 1 1 2 2 1 1 2 3 3 2 1 2 3 4 4 3 2 1 1 2 2 1 1 1 1 1 1 2 1 1 2 2 2 2 2 2 3 3 3 3 3 3 3
3 4 4 4 3 2 1 1 1 2 2 2 3 4 4 4 3 1 1 2 3 3 2 1 1 1 1 1 1 1 1 1 1 2 2 2 2 2 2 2 2 2 1 2
2 2 2 2 2 2 2 2 2 2 2 3 4 3 3 3 2 1 1 3 3 1 2 1 2 2 1 1 1 1 1 1 1 1 2 2 1 1 2 2 1 1 1 1
1 1 2 1 1 2 3 2 3 2 2 3 4 3 2 1 2 2 2 2 1 1 1 0 1 1 1 2 2 1 1 2 2 1 2 2 2 1 1 1 1 0 1 0
1 1 2 2 2 1 2 3 3 2 2 3 4 3 2 2 2 2 3 1 2 1 1 1 1 1 1 2 2 2 2 2 2 2 2 2 2 2 1 2 2 1 1 1
1 0 1 1 2 3 2 3 3 3 3 3 3 4 3 2 2 2 1 1 1 1 1 1 1 2 3 4 3 2 2 2 2 2 2 2 2 2 2 2 1 1 1 1
0 1 0 2 3 3 3 3 3 4 4 3 4 4 3 2 3 3 1 0 1 2 2 1 2 4 5 4 3 3 3 3 2 2 3 3 3 2 2 2 2 1 1 1
0 0 1 2 3 4 3 2 3 4 4 4 4 4 4 3 2 2 2 2 3 3 2 2 3 4 5 3 3 3 3 3 3 3 3 3 3 2 2 2 2 1 1 2
2 3 4 4 4 3 3 5 6 5 5 4 4 4 3 3 3 3 3 3 4 5 4 4 5 4 4 4 4 3 3 3 3 3 4 3 3 3 2 2 2 2 2 2
3 3 3 3 3 3 3 4 4 4 4 4 4 3 4 3 4 4 3 4 5 5 4 3 3 4 3 4 3 3 3 3 3 4 4 3 3 3 3 2 3 2 2 2
5 4 4 3 4 4 4 4 5 4 4 4 4 3 4 4 4 4 4 4 4 4 3 3 3 4 4 4 4 4 4 3 3 3 3 3 3 2 2 2 2 1 1 1
Wind_Direction
219 233 230 256 261 227 183 182 182 207 193 205 197 184 174 156 144 139 140 148 160 170 170 168 173 182 183 191 190 186 181 185 193 191 186 181 179 183 181 183 187 191 191 197
340 336 5 334 289 249 222 172 166 162 208 220 187 159 153 152 145 146 155 163 164 165 167 171 176 184 184 194 192 178 178 188 187 180 180 182 183 182 180 182 186 181 186 193
302 320 25 311 273 203 161 146 153 180 207 162 141 154 167 164 156 160 162 165 171 177 174 176 176 176 182 189 176 167 177 182 179 178 179 184 183 178 182 183 177 188 199 193
139 41 214 241 276 104 95 59 96 126 153 149 151 161 161 157 161 164 160 162 166 176 172 168 164 166 169 162 158 166 174 184 182 178 183 185 179 183 184 177 180 196 207 206
132 175 269 298 314 92 116 10 44 114 113 102 110 89 63 117 140 152 150 150 147 149 150 151 149 149 139 143 151 158 177 187 188 183 183 182 186 188 182 171 180 199 198 200
141 160 217 254 294 333 97 35 342 104 121 121 99 106 219 211 113 123 130 133 132 132 124 127 139 138 138 149 143 155 178 181 178 179 183 187 189 181 175 176 193 198 196 201
169 202 250 270 299 37 115 210 261 114 121 112 124 168 183 129 106 115 121 124 127 125 131 143 143 134 134 145 162 179 159 144 150 164 179 179 171 171 168 174 179 189 201 209
156 186 245 302 15 109 193 189 146 98 102 97 104 103 101 100 105 107 114 118 123 124 127 125 127 131 136 155 178 145 126 121 130 140 157 151 148 164 165 168 179 194 197 214
177 205 254 344 118 163 129 118 110 98 99 104 102 99 94 92 99 108 112 120 119 121 115 96 97 114 133 175 139 117 118 128 122 111 119 126 156 162 157 169 182 196 197 214
49 290 321 11 49 49 77 90 93 102 102 97 97 94 90 90 87 97 101 111 114 112 112 108 106 111 140 148 120 126 134 128 100 99 85 73 111 165 166 182 192 197 205 219
287 281 353 355 22 54 46 56 63 67 83 98 103 103 112 120 128 124 119 119 119 123 129 135 131 141 164 149 138 137 138 132 122 115 115 94 68 80 185 213 211 202 209 202
229 232 192 262 313 58 66 60 80 74 58 60 98 109 109 122 145 134 129 124 122 131 148 158 153 158 173 171 154 151 158 158 154 152 149 150 137 48 22 21 352 201 190 188
217 221 212 252 301 34 65 60 80 86 101 71 69 96 98 103 99 99 103 111 128 144 156 156 156 161 180 179 159 157 171 176 175 174 174 184 180 174 200 0 19 20 290 206
202 167 262 283 278 1 95 104 90 80 92 104 99 89 96 100 107 113 125 150 132 133 150 158 157 174 185 163 143 142 156 172 182 191 191 195 193 194 187 187 240 321 327 274
270 187 202 225 135 54 77 91 86 79 81 74 73 91 114 124 134 148 152 126 107 111 153 158 153 209 197 147 141 145 157 186 190 195 198 195 183 176 179 187 197 224 275 301
332 74 123 123 125 143 112 119 126 141 137 121 95 105 131 130 118 99 112 117 114 133 203 184 194 228 188 147 147 156 185 215 214 192 195 182 165 171 182 192 203 216 229 235
75 260 149 150 161 171 178 193 171 169 157 140 143 125 117 107 87 66 61 107 123 142 149 155 223 230 134 151 158 173 184 215 214 179 177 179 180 187 194 196 208 222 239 240
218 215 196 172 169 171 197 234 210 167 161 164 141 124 122 119 116 109 91 79 85 67 38 40 14 47 77 90 125 139 162 186 184 184 182 188 194 195 189 193 203 219 259 274
237 204 198 198 190 177 199 225 219 187 163 144 138 141 148 145 139 129 105 93 92 67 325 350 63 54 25 355 63 102 122 132 137 166 167 156 144 141 153 162 188 221 230 250
287 223 223 243 243 210 200 186 168 166 169 150 135 133 131 138 134 124 104 83 63 247 250 112 73 45 0 345 23 84 98 102 105 103 119 123 121 114 120 122 115 84 355 328
281 214 214 229 233 212 166 148 145 160 167 148 138 145 159 161 141 130 113 76 330 2 22 54 58 35 30 34 53 85 96 103 114 118 120 116 107 101 86 79 74 68 46 15
331 349 260 242 161 148 143 134 138 144 148 147 142 138 131 129 127 109 99 168 233 45 52 47 54 67 64 62 70 80 85 86 86 90 94 99 100 92 82 85 78 56 31 8
22 18 5 139 137 136 119 126 144 145 145 148 149 154 160 169 157 141 124 323 93 55 54 62 70 63 58 63 66 65 71 74 82 93 96 102 106 107 109 104 87 60 22 9
287 78 113 135 116 110 111 118 116 116 116 117 120 126 125 115 85 88 128 117 90 71 71 55 46 56 67 74 72 70 69 72 77 83 87 90 86 83 85 91 85 62 37 30
116 96 79 78 84 101 118 114 104 97 93 89 91 97 100 118 128 122 111 107 89 73 62 48 48 55 72 83 81 75 76 80 81 81 81 84 85 81 72 66 65 57 42 39
98 98 99 108 110 108 106 108 109 105 102 97 86 81 84 91 101 100 95 87 78 71 63 55 58 64 76 76 75 75 74 73 77 79 83 84 81 76 69 61 55 48 37 31
77 79 75 70 76 93 99 100 101 99 107 114 108 99 100 95 90 88 85 84 78 74 67 65 68 71 76 74 74 73 72 70 71 72 74 71 69 66 62 60 42 39 37 17
Height
1463 1457 1455 1455 1454 1455 1463 1469 1478 1477 1475 1469 1465 1463 1464 1466 1468 1471 1474 1476 1479 1482 1485 1488 1491 1493 1496 1498 1500 1502 1504 1506 1508 1510 1512 1513 1514 1515 1516 1517 1517 1517 1518 1518
1463 1454 1453 1454 1451 1452 1454 1457 1462 1465 1468 1460 1459 1460 1462 1465 1466 1469 1471 1473 1476 1479 1483 1485 1488 1491 1493 1496 1498 1501 1502 1503 1505 1507 1509 1510 1512 1513 1513 1514 1514 1514 1514 1514
1475 1461 1457 1466 1454 1452 1454 1453 1456 1464 1463 1458 1460 1460 1461 1462 1464 1466 1468 1471 1474 1476 1478 1482 1485 1488 1490 1492 1495 1497 1500 1502 1503 1505 1506 1507 1509 1510 1510 1510 1511 1511 1511 1511
1479 1471 1481 1466 1447 1446 1451 1453 1451 1453 1455 1455 1455 1457 1459 1461 1463 1465 1466 1469 1471 1474 1477 1480 1483 1485 1488 1490 1493 1495 1496 1499 1500 1502 1503 1504 1505 1506 1506 1506 1506 1507 1507 1507
1483 1484 1475 1459 1448 1448 1453 1459 1454 1454 1455 1456 1456 1458 1461 1462 1462 1464 1466 1468 1470 1473 1475 1478 1480 1483 1486 1488 1490 1492 1493 1496 1497 1499 1499 1500 1501 1502 1502 1502 1502 1502 1503 1503
1479 1480 1482 1465 1448 1444 1449 1466 1456 1454 1455 1456 1456 1465 1466 1463 1463 1464 1466 1468 1470 1473 1475 1476 1479 1482 1483 1485 1486 1488 1490 1492 1494 1496 1496 1497 1498 1499 1499 1499 1499 1499 1500 1500
1476 1478 1471 1455 1447 1445 1465 1468 1457 1455 1455 1456 1458 1461 1463 1462 1463 1465 1466 1468 1470 1472 1473 1475 1477 1479 1481 1483 1483 1485 1488 1490 1491 1493 1494 1494 1494 1495 1496 1496 1496 1496 1496 1496
1475 1479 1474 1451 1448 1455 1458 1454 1455 1455 1455 1456 1458 1459 1461 1462 1463 1464 1466 1467 1469 1471 1473 1474 1475 1477 1478 1479 1481 1484 1485 1487 1488 1490 1491 1491 1491 1491 1492 1492 1492 1492 1493 1492
1466 1468 1458 1452 1451 1451 1451 1453 1454 1455 1456 1456 1458 1459 1461 1462 1463 1464 1466 1467 1468 1470 1471 1474 1476 1477 1478 1479 1480 1482 1484 1485 1486 1487 1488 1488 1489 1488 1489 1489 1489 1489 1489 1488
1462 1459 1455 1453 1451 1452 1452 1453 1455 1456 1457 1457 1458 1460 1461 1462 1463 1464 1465 1466 1467 1469 1470 1472 1474 1476 1477 1478 1479 1481 1481 1482 1483 1484 1484 1484 1486 1486 1485 1485 1486 1485 1485 1485
1462 1458 1455 1453 1453 1453 1454 1454 1455 1457 1458 1459 1459 1459 1460 1461 1462 1463 1464 1465 1466 1467 1469 1471 1472 1473 1474 1475 1476 1476 1478 1478 1480 1481 1481 1482 1483 1483 1482 1482 1483 1482 1482 1481
1461 1456 1456 1455 1454 1454 1454 1455 1456 1457 1458 1459 1459 1459 1460 1461 1461 1462 1463 1464 1465 1466 1467 1468 1469 1470 1471 1472 1473 1474 1474 1475 1476 1477 1478 1479 1479 1479 1479 1480 1480 1479 1479 1479
1452 1452 1453 1453 1453 1453 1453 1454 1455 1456 1457 1458 1459 1459 1460 1460 1460 1461 1461 1462 1463 1464 1465 1466 1466 1467 1468 1469 1470 1470 1470 1471 1473 1474 1475 1476 1476 1476 1476 1476 1476 1476 1476 1475
1449 1451 1451 1451 1452 1452 1453 1454 1455 1455 1456 1457 1458 1458 1460 1460 1461 1461 1461 1461 1461 1462 1463 1464 1464 1464 1465 1466 1466 1466 1467 1468 1469 1470 1471 1472 1472 1472 1472 1472 1472 1472 1472 1472
1448 1448 1448 1449 1450 1451 1451 1452 1453 1454 1455 1456 1457 1457 1458 1459 1459 1460 1460 1460 1460 1460 1461 1462 1461 1462 1462 1463 1463 1464 1464 1465 1466 1467 1467 1468 1468 1469 1469 1469 1469 1469 1468 1468
1445 1446 1446 1448 1449 1450 1450 1451 1452 1453 1454 1454 1455 1456 1457 1457 1457 1458 1458 1458 1459 1459 1459 1459 1459 1460 1460 1460 1461 1461 1462 1463 1463 1463 1464 1464 1465 1465 1466 1466 1465 1465 1465 1464
1444 1444 1445 1446 1447 1448 1449 1450 1451 1452 1452 1453 1454 1455 1456 1456 1456 1456 1457 1457 1457 1458 1458 1458 1458 1458 1458 1458 1458 1458 1459 1459 1459 1460 1460 1461 1462 1462 1462 1462 1462 1462 1461 1461
1442 1443 1443 1444 1445 1446 1447 1448 1449 1450 1450 1451 1453 1454 1454 1455 1455 1455 1455 1455 1455 1456 1456 1456 1456 1456 1455 1456 1456 1456 1456 1456 1456 1457 1458 1459 1459 1459 1459 1459 1459 1459 1458 1458
1439 1440 1441 1442 1443 1444 1445 1446 1447 1448 1449 1450 1451 1452 1453 1453 1454 1455 1455 1455 1454 1454 1455 1455 1455 1454 1454 1454 1454 1453 1453 1453 1454 1454 1455 1455 1456 1456 1456 1456 1456 1456 1455 1455
1438 1438 1439 1439 1440 1441 1441 1443 1444 1446 1447 1448 1449 1450 1451 1452 1453 1453 1454 1454 1453 1454 1454 1453 1453 1452 1452 1452 1451 1451 1451 1451 1451 1451 1452 1452 1452 1453 1453 1453 1453 1453 1452 1452
1435 1436 1436 1436 1437 1438 1439 1440 1442 1444 1445 1446 1447 1449 1450 1450 1451 1452 1452 1452 1453 1453 1453 1452 1452 1451 1450 1449 1449 1449 1449 1449 1449 1449 1449 1449 1450 1450 1450 1450 1450 1450 1450 1449
1434 1434 1434 1434 1434 1436 1437 1439 1441 1443 1444 1445 1446 1448 1448 1449 1450 1451 1451 1452 1452 1452 1451 1451 1451 1450 1448 1447 1447 1447 1447 1447 1447 1446 1447 1447 1447 1448 1448 1447 1447 1447 1447 1446
1433 1433 1433 1434 1434 1435 1437 1438 1440 1441 1443 1444 1445 1446 1447 1448 1449 1449 1449 1450 1451 1450 1450 1450 1449 1448 1447 1446 1446 1446 1445 1445 1445 1445 1445 1445 1445 1445 1446 1445 1444 1445 1444 1442
1433 1433 1434 1434 1434 1435 1437 1438 1439 1441 1443 1444 1445 1446 1447 1447 1448 1449 1449 1449 1449 1449 1448 1448 1447 1447 1446 1446 1446 1445 1444 1444 1444 1444 1444 1443 1443 1443 1443 1443 1442 1442 1441 1440
1433 1433 1434 1435 1435 1436 1437 1438 1440 1441 1443 1444 1444 1445 1446 1447 1447 1448 1448 1448 1448 1448 1447 1447 1447 1446 1446 1446 1446 1445 1444 1444 1443 1443 1443 1442 1442 1441 1441 1441 1440 1440 1439 1438
1433 1434 1435 1436 1436 1437 1438 1439 1441 1442 1443 1444 1445 1446 1447 1448 1448 1448 1448 1448 1448 1448 1448 1448 1447 1447 1447 1447 1446 1445 1445 1444 1443 1443 1442 1442 1441 1441 1440 1440 1439 1438 1437 1436
1435 1437 1437 1438 1438 1439 1440 1441 1442 1443 1444 1444 1445 1447 1448 1448 1448 1449 1449 1449 1449 1449 1449 1448 1449 1448 1448 1447 1447 1446 1445 1445 1444 1443 1442 1441 1441 1441 1440 1439 1438 1437 1436 1434